Tacoma Narrows, WA
on Thursday, December 6, 2012

Thursday
Previous Day Next Day
Daily Summary
 ActualAverageRecord
Temperature
Mean Temperature °F °F  
Max Temperature 44°F 45°F 53°F (2014)
Min Temperature 42°F 38°F 27°F (2013)
Degree Days
Heating Degree Days 22    
Moisture
Dew Point 39°F   
Average Humidity 84    
Maximum Humidity 93    
Minimum Humidity 79    
Precipitation
Precipitation 0.22 in in in ()
Wind
Wind Speed 10 mph   
Max Wind Speed 18 mph   
Max Gust Speed 23 mph   
Visibility 9 miles   
Events Rain   
Averages and records for this station are not official NWS values.
Key: T is trace of precipitation, MM is missing value
Source: NWS Daily Summary
Seasonal Weather Averages
Time(PST)TemperatureDew PointHumidity Pressure Visibility Wind DirectionWind SpeedGust SpeedPrecipitationEvents Conditions
12:53 AM 43.0°F 37.9°F 82% 30.19 in 10.0 miles South 6.9 mph - N/A   Overcast
1:53 AM 43.0°F 37.9°F 82% 30.19 in 10.0 miles South 9.2 mph - 0.00 in Rain Light Rain
2:53 AM 43.0°F 37.9°F 82% 30.18 in 10.0 miles South 10.4 mph - 0.00 in   Mostly Cloudy
3:53 AM 43.0°F 37.0°F 80% 30.17 in 10.0 miles South 12.7 mph - 0.00 in Rain Light Rain
4:07 AM 42.8°F 37.4°F 81% 30.16 in 10.0 miles South 11.5 mph - 0.00 in   Overcast
4:53 AM 43.0°F 37.9°F 82% 30.16 in 10.0 miles SSW 8.1 mph - 0.01 in Rain Light Rain
5:53 AM 43.0°F 37.0°F 80% 30.13 in 10.0 miles South 12.7 mph - 0.00 in   Mostly Cloudy
6:53 AM 43.0°F 37.0°F 80% 30.13 in 10.0 miles South 12.7 mph - 0.00 in Rain Light Rain
7:37 AM 42.8°F 37.4°F 81% 30.11 in 10.0 miles South 11.5 mph - 0.01 in Rain Light Rain
7:53 AM 43.0°F 37.9°F 82% 30.12 in 10.0 miles South 13.8 mph - 0.01 in   Overcast
8:49 AM 42.8°F 37.4°F 81% 30.11 in 10.0 miles South 18.4 mph - 0.00 in   Overcast
8:53 AM 43.0°F 37.9°F 82% 30.12 in 10.0 miles South 16.1 mph 23.0 mph 0.00 in   Overcast
9:53 AM 44.1°F 37.9°F 79% 30.12 in 10.0 miles South 16.1 mph 23.0 mph 0.00 in Rain Light Rain
10:53 AM 43.0°F 39.0°F 86% 30.12 in 10.0 miles South 15.0 mph - 0.04 in Rain Light Rain
11:53 AM 43.0°F 39.9°F 89% 30.11 in 4.0 miles SSW 11.5 mph 20.7 mph 0.04 in Rain Light Rain
12:53 PM 43.0°F 39.9°F 89% 30.09 in 5.0 miles SSW 13.8 mph - 0.05 in Rain Light Rain
12:54 PM 42.8°F 39.2°F 87% 30.08 in 9.0 miles SSW 12.7 mph 19.6 mph 0.01 in Rain Light Rain
1:13 PM 44.6°F 39.2°F 81% 30.07 in 10.0 miles South 15.0 mph - 0.01 in   Overcast
1:53 PM 44.1°F 39.9°F 85% 30.08 in 9.0 miles South 13.8 mph - 0.01 in Rain Light Rain
2:08 PM 44.6°F 41.0°F 87% 30.07 in 8.0 miles SSW 10.4 mph - 0.01 in Rain Light Rain
2:21 PM 44.6°F 41.0°F 87% 30.08 in 4.0 miles SW 5.8 mph - 0.04 in Rain Light Rain
2:33 PM 42.8°F 41.0°F 93% 30.07 in 4.0 miles SSW 9.2 mph - 0.06 in Rain Light Rain
2:53 PM 44.1°F 39.9°F 85% 30.07 in 6.0 miles SSW 9.2 mph 17.3 mph 0.06 in   Overcast
3:00 PM 44.6°F 39.2°F 81% 30.06 in 10.0 miles SSW 9.2 mph - N/A   Overcast
3:53 PM 44.1°F 39.9°F 85% 30.06 in 10.0 miles SSW 13.8 mph - N/A   Mostly Cloudy
4:53 PM 43.0°F 39.0°F 86% 30.08 in 10.0 miles SSW 10.4 mph - N/A   Mostly Cloudy
5:53 PM 43.0°F 39.0°F 86% 30.08 in 10.0 miles SSW 10.4 mph - N/A   Mostly Cloudy
6:53 PM 43.0°F 39.0°F 86% 30.09 in 10.0 miles SW 5.8 mph - N/A   Scattered Clouds
7:53 PM 43.0°F 39.0°F 86% 30.11 in 10.0 miles Calm Calm - N/A   Scattered Clouds
8:00 PM 42.8°F 39.2°F 87% 30.10 in 10.0 miles Calm Calm - N/A   Mostly Cloudy
8:53 PM 43.0°F 39.0°F 86% 30.13 in 10.0 miles South 6.9 mph - N/A   Mostly Cloudy
9:23 PM 42.8°F 39.2°F 87% 30.12 in 10.0 miles South 5.8 mph - N/A   Scattered Clouds
9:53 PM 43.0°F 39.0°F 86% 30.12 in 10.0 miles South 9.2 mph - N/A   Scattered Clouds
10:53 PM 43.0°F 39.9°F 89% 30.13 in 10.0 miles South 12.7 mph - N/A   Mostly Cloudy
11:40 PM 42.8°F 39.2°F 87% 30.11 in 10.0 miles South 11.5 mph - N/A   Overcast
11:53 PM 43.0°F 39.0°F 86% 30.12 in 10.0 miles South 10.4 mph - 0.00 in Rain Light Rain
Moon Phase
Dec. 06 Dec. 13 Dec. 20 Dec. 28 Jan. 04
Sunrise:07:42 AM (PST) Moon Rise:No Moon Rise/
Sunset:04:20 PM (PST) Moon Set:12:14 PM (PST)12/6

Copyright © 2014 The Weather Underground, Inc.